User: anonymous   Login
Location: *
(13.2257°S, 48.7193°W)
Time: 21:32:18
(UTC+00:00)
Language:

Meteor 1-28 Rocket - Orbit

View from above orbital plane
View from above orbital plane
View from above satellite
View from above satellite

Ground track
Ground track

The orbit is defined by the following mean orbital elements,

1 10114U          26106.64680551 +.00000000 +00000-0 +15339-3 0 00004
2 10114  97.5808 280.2809 0008087 140.1080 220.0765 15.46545150    00
Epoch (UTC): 16 April 2026 15:31:23
Eccentricity: 0.0008087
inclination: 97.5808°
perigee height: 421 km
apogee height: 432 km
right ascension of ascending node: 280.2809°
argument of perigee: 140.1080°
revolutions per day: 15.46545150
mean anomaly at epoch: 220.0765°

The dashed part of the orbit path shows where the satellite is in the earth's shadow,  

DLR